When you browse on this site, cookies collect data to enhance your experience and personalize the content and advertising you see.
Visit our Privacy Policy to learn more. By continuing to use the site, you agree to this use of cookies and data.
  • In Spain
  • List of Countries
  • For 7 days
  • Water Temperature
  • Weather Map
  • Weather Widgets
  • user-avatar
    Login

    Hourly Weather Perth

    Today, 11 November, Monday

    Time Temperature Precipitation Wind Pressure Humidity
    00:00 +1°C° 0 mm 5 mps 748 mmHg 97%
    01:00 +1°C° 1.1 mm 4 mps 747 mmHg 97%
    02:00 +1°C° 1.1 mm 4 mps 746 mmHg 97%
    03:00 +3°C° 1.1 mm 3 mps 744 mmHg 97%
    04:00 +3°C° 0.2 mm 3 mps 744 mmHg 97%
    05:00 +4°C° 0.2 mm 2 mps 743 mmHg 97%
    06:00 +5°C° 0 mm 1 mps 742 mmHg 97%
    07:00 +4°C° 0.2 mm 2 mps 741 mmHg 97%
    08:00 +4°C° 0.2 mm 2 mps 741 mmHg 96%
    09:00 +3°C° 0.2 mm 3 mps 740 mmHg 96%
    10:00 +4°C° 0.2 mm 3 mps 740 mmHg 96%
    11:00 +4°C° 0.2 mm 3 mps 740 mmHg 95%
    12:00 +5°C° 0 mm 2 mps 741 mmHg 95%
    13:00 +5°C° 0.1 mm 2 mps 741 mmHg 94%
    14:00 +5°C° 0.1 mm 2 mps 741 mmHg 94%
    15:00 +4°C° 0.1 mm 3 mps 741 mmHg 93%
    16:00 +3°C° 0.1 mm 3 mps 741 mmHg 94%
    17:00 +3°C° 0.1 mm 3 mps 741 mmHg 95%
    18:00 +3°C° 0.1 mm 3 mps 741 mmHg 96%
    19:00 +3°C° 0.2 mm 3 mps 740 mmHg 96%
    20:00 +3°C° 0.2 mm 3 mps 740 mmHg 96%
    21:00 +4°C° 0.2 mm 2 mps 740 mmHg 96%
    22:00 +3°C° 0.2 mm 2 mps 740 mmHg 96%
    23:00 +3°C° 0.2 mm 2 mps 740 mmHg 95%

    Tomorrow, 12 November, Tuesday

    Time Temperature Precipitation Wind Pressure Humidity
    00:00 +3°C° 0.2 mm 2 mps 739 mmHg 95%
    01:00 +3°C° 0.1 mm 2 mps 739 mmHg 95%
    02:00 +1°C° 0.1 mm 3 mps 739 mmHg 94%
    03:00 +1°C° 0.1 mm 3 mps 739 mmHg 94%
    04:00 +1°C° 0.9 mm 4 mps 739 mmHg 94%
    05:00 +3°C° 0.9 mm 4 mps 740 mmHg 94%
    06:00 +2°C° 0.9 mm 5 mps 740 mmHg 94%
    07:00 +4°C° 0.1 mm 4 mps 741 mmHg 93%
    08:00 +4°C° 0.1 mm 4 mps 741 mmHg 92%
    09:00 +4°C° 0.1 mm 4 mps 742 mmHg 91%
    10:00 +5°C° 0.1 mm 4 mps 743 mmHg 90%
    11:00 +5°C° 0.1 mm 4 mps 744 mmHg 89%
    12:00 +5°C° 0.1 mm 4 mps 744 mmHg 88%
    13:00 +5°C° 0.1 mm 4 mps 745 mmHg 88%
    14:00 +5°C° 0.1 mm 4 mps 745 mmHg 89%
    15:00 +5°C° 0.1 mm 4 mps 745 mmHg 89%
    16:00 +4°C° 0.1 mm 3 mps 746 mmHg 91%
    17:00 +3°C° 0.1 mm 3 mps 746 mmHg 92%
    18:00 +3°C° 0.1 mm 3 mps 747 mmHg 93%
    19:00 +3°C° 0 mm 2 mps 747 mmHg 94%
    20:00 +3°C° 0 mm 2 mps 748 mmHg 94%
    21:00 +2°C° 0 mm 2 mps 748 mmHg 94%
    22:00 +2°C° 0 mm 2 mps 748 mmHg 94%
    23:00 +2°C° 0 mm 2 mps 748 mmHg 94%

    Day after tomorrow, 13 November, Wednesday

    Time Temperature Precipitation Wind Pressure Humidity
    00:00 +2°C° 0 mm 2 mps 748 mmHg 94%
    01:00 +1°C° 0 mm 2 mps 748 mmHg 94%
    02:00 +1°C° 0 mm 2 mps 748 mmHg 93%
    03:00 +1°C° 0 mm 2 mps 748 mmHg 93%
    04:00 -1°C° 0 mm 2 mps 747 mmHg 93%
    05:00 +1°C° 0 mm 1 mps 747 mmHg 92%
    06:00 +1°C° 0 mm 1 mps 747 mmHg 92%
    07:00 +1°C° 0 mm 1 mps 747 mmHg 91%
    08:00 +1°C° 0 mm 1 mps 747 mmHg 89%
    09:00 +1°C° 0 mm 1 mps 747 mmHg 88%
    10:00 +2°C° 0 mm 1 mps 746 mmHg 85%
    11:00 +3°C° 0 mm 1 mps 746 mmHg 81%
    12:00 +3°C° 0 mm 0 mps 746 mmHg 78%
    13:00 +3°C° 0 mm 0 mps 745 mmHg 79%
    14:00 +4°C° 0 mm 1 mps 745 mmHg 81%
    15:00 +3°C° 0 mm 1 mps 745 mmHg 83%
    16:00 +3°C° 0 mm 1 mps 745 mmHg 83%
    17:00 +2°C° 0 mm 1 mps 745 mmHg 84%
    18:00 +2°C° 0 mm 1 mps 746 mmHg 84%
    19:00 +2°C° 0 mm 1 mps 746 mmHg 84%
    20:00 -1°C° 0 mm 2 mps 746 mmHg 84%
    21:00 -1°C° 0 mm 2 mps 747 mmHg 83%
    22:00 -1°C° 0 mm 2 mps 747 mmHg 83%
    23:00 -1°C° 0 mm 2 mps 748 mmHg 84%

    14 November, Thursday

    Time Temperature Precipitation Wind Pressure Humidity
    00:00 -1°C° 0 mm 2 mps 748 mmHg 84%
    01:00 -1°C° 0 mm 2 mps 748 mmHg 85%
    02:00 -1°C° 0 mm 2 mps 749 mmHg 85%
    03:00 -1°C° 0 mm 2 mps 749 mmHg 86%
    04:00 +1°C° 0.1 mm 2 mps 749 mmHg 87%
    05:00 +1°C° 0.1 mm 2 mps 750 mmHg 87%
    06:00 0°C° 0.1 mm 3 mps 750 mmHg 87%
    07:00 +2°C° 0.1 mm 2 mps 751 mmHg 89%
    08:00 +2°C° 0.1 mm 2 mps 752 mmHg 91%
    09:00 +3°C° 0.1 mm 2 mps 753 mmHg 93%
    10:00 +4°C° 0 mm 2 mps 753 mmHg 90%
    11:00 +3°C° 0 mm 3 mps 754 mmHg 88%
    12:00 +4°C° 0 mm 3 mps 754 mmHg 86%
    13:00 +4°C° 0 mm 3 mps 755 mmHg 86%
    14:00 +4°C° 0 mm 4 mps 755 mmHg 86%
    15:00 +4°C° 0 mm 4 mps 756 mmHg 86%
    16:00 +3°C° 0 mm 5 mps 756 mmHg 88%
    17:00 +2°C° 0 mm 5 mps 757 mmHg 90%
    18:00 +2°C° 0 mm 6 mps 758 mmHg 92%
    19:00 +2°C° 0 mm 6 mps 758 mmHg 91%
    20:00 +2°C° 0 mm 6 mps 759 mmHg 90%
    21:00 +3°C° 0 mm 6 mps 760 mmHg 89%
    22:00 +2°C° 0 mm 6 mps 760 mmHg 88%
    23:00 +2°C° 0 mm 5 mps 761 mmHg 88%

    15 November, Friday

    Time Temperature Precipitation Wind Pressure Humidity
    00:00 +1°C° 0 mm 4 mps 762 mmHg 87%
    01:00 +1°C° 0 mm 4 mps 762 mmHg 87%
    02:00 0°C° 0 mm 4 mps 762 mmHg 87%
    03:00 0°C° 0 mm 4 mps 763 mmHg 87%
    04:00 +1°C° 0 mm 3 mps 763 mmHg 87%
    05:00 0°C° 0 mm 3 mps 763 mmHg 88%
    06:00 0°C° 0 mm 3 mps 763 mmHg 89%
    07:00 0°C° 0 mm 3 mps 763 mmHg 89%
    08:00 +2°C° 0 mm 2 mps 764 mmHg 89%
    09:00 +2°C° 0 mm 2 mps 764 mmHg 89%
    10:00 +2°C° 0 mm 3 mps 764 mmHg 85%
    11:00 +3°C° 0 mm 3 mps 764 mmHg 82%
    12:00 +5°C° 0 mm 4 mps 764 mmHg 78%
    13:00 +4°C° 0 mm 4 mps 763 mmHg 81%
    14:00 +4°C° 0 mm 3 mps 763 mmHg 83%
    15:00 +3°C° 0 mm 3 mps 763 mmHg 85%
    16:00 +2°C° 0 mm 3 mps 763 mmHg 86%
    17:00 +1°C° 0 mm 3 mps 763 mmHg 88%
    18:00 0°C° 0 mm 3 mps 763 mmHg 90%
    19:00 0°C° 0 mm 3 mps 763 mmHg 90%
    20:00 +1°C° 0 mm 2 mps 763 mmHg 90%
    21:00 +1°C° 0 mm 2 mps 762 mmHg 90%
    22:00 +1°C° 0 mm 2 mps 762 mmHg 90%
    23:00 +1°C° 0 mm 2 mps 762 mmHg 90%

    16 November, Saturday

    Time Temperature Precipitation Wind Pressure Humidity
    00:00 +1°C° 0 mm 2 mps 762 mmHg 89%
    01:00 +1°C° 0 mm 2 mps 761 mmHg 89%
    02:00 -1°C° 0 mm 2 mps 761 mmHg 88%
    03:00 -1°C° 0 mm 2 mps 760 mmHg 88%
    04:00 -1°C° 0 mm 2 mps 760 mmHg 87%
    05:00 -1°C° 0 mm 2 mps 760 mmHg 87%
    06:00 -1°C° 0 mm 2 mps 759 mmHg 86%
    07:00 +1°C° 0 mm 2 mps 759 mmHg 84%
    08:00 +2°C° 0 mm 2 mps 759 mmHg 82%
    09:00 +2°C° 0 mm 2 mps 759 mmHg 80%
    10:00 +3°C° 0 mm 2 mps 759 mmHg 82%
    11:00 +3°C° 0 mm 2 mps 759 mmHg 83%
    12:00 +4°C° 0 mm 2 mps 758 mmHg 84%
    13:00 +4°C° 0 mm 2 mps 758 mmHg 87%
    14:00 +4°C° 0 mm 2 mps 758 mmHg 89%
    15:00 +5°C° 0 mm 1 mps 757 mmHg 92%
    16:00 +4°C° 0 mm 1 mps 757 mmHg 92%
    17:00 +4°C° 0 mm 1 mps 757 mmHg 92%
    18:00 +2°C° 0 mm 2 mps 757 mmHg 92%
    19:00 +2°C° 0 mm 2 mps 757 mmHg 90%
    20:00 +2°C° 0 mm 2 mps 757 mmHg 89%
    21:00 +1°C° 0 mm 2 mps 758 mmHg 88%
    22:00 +2°C° 0 mm 1 mps 758 mmHg 87%
    23:00 +3°C° 0 mm 1 mps 758 mmHg 86%
    Show more